Date,TemperatureHighF,TemperatureAvgF,TemperatureLowF,DewpointHighF,DewpointAvgF,DewpointLowF,HumidityHigh,HumidityAvg,HumidityLow,PressureMaxIn,PressureMinIn,WindSpeedMaxMPH,WindSpeedAvgMPH,GustSpeedMaxMPH,PrecipitationSumIn
2013-1-1,45.0,41.5,37.3,33.6,31.8,27.1,76,68,61,30.00,29.86,7,4,11,0.00
2013-1-2,37.2,31.8,28.2,27.7,20.2,18.0,69,62,50,30.22,29.96,7,2,11,0.00
2013-1-3,34.3,30.2,24.0,26.8,21.0,17.1,81,69,50,30.23,30.13,7,2,11,0.00
2013-1-4,39.6,35.9,32.8,28.2,25.8,23.4,78,67,58,30.17,30.04,11,5,24,0.00
2013-1-5,40.8,35.0,29.8,30.1,25.4,23.4,87,68,52,30.36,30.10,7,3,12,0.00
2013-1-6,49.1,39.5,34.5,37.1,32.9,29.9,91,78,49,30.25,30.00,7,2,10,0.00
2013-1-7,47.0,39.7,27.4,33.3,30.2,24.8,90,70,53,30.43,30.08,7,2,13,0.00
2013-1-8,49.7,38.0,25.6,38.3,32.8,23.9,96,83,62,30.45,30.37,6,1,9,0.00
2013-1-9,53.1,45.7,33.2,46.5,39.7,30.9,96,80,64,30.40,30.18,7,2,12,0.00
2013-1-10,49.8,43.7,33.5,38.2,32.4,29.8,86,65,49,30.54,30.31,7,2,11,0.00
2013-1-11,52.6,42.4,31.5,51.6,39.5,28.6,97,89,72,30.51,30.06,6,0,12,0.18
2013-1-12,54.4,47.5,44.2,50.7,45.8,43.1,97,94,85,30.16,30.06,6,1,8,0.00
2013-1-13,53.0,47.5,42.2,52.5,46.5,41.4,98,96,92,30.16,30.00,7,2,10,0.00
2013-1-14,58.5,54.0,45.8,57.6,51.0,43.1,98,90,72,30.24,29.97,6,2,12,0.09
2013-1-15,45.2,38.8,35.6,42.8,37.5,34.1,96,95,91,30.32,30.14,6,2,10,0.62
2013-1-16,42.3,38.7,35.8,41.5,37.7,34.5,97,96,95,30.15,29.83,8,2,11,0.44
2013-1-17,42.7,40.6,36.4,41.1,37.8,34.2,97,90,76,30.11,29.96,4,1,8,0.07
2013-1-18,36.4,32.9,25.2,35.1,24.3,14.9,95,72,44,30.51,30.00,8,3,15,0.01
2013-1-19,50.4,41.1,29.4,35.5,31.2,22.9,80,68,49,30.46,29.99,8,6,13,0.00
2013-1-20,56.2,45.8,35.9,38.7,31.2,18.1,79,59,33,30.06,29.78,10,6,18,0.00
2013-1-21,38.9,33.2,28.1,28.6,20.4,13.9,94,60,43,30.12,29.78,9,2,11,0.00
2013-1-22,28.3,21.8,16.8,24.4,7.2,1.8,85,54,42,30.27,29.88,11,6,18,0.00
2013-1-23,22.9,18.3,13.5,6.4,3.8,1.3,63,53,44,30.32,30.17,9,4,21,0.00
2013-1-24,25.9,20.9,16.9,8.4,5.6,1.9,66,52,36,30.46,30.10,11,4,18,0.00
2013-1-25,24.4,20.3,16.0,18.2,10.8,4.7,90,67,49,30.47,30.06,6,1,7,0.00
2013-1-26,29.1,22.0,12.3,19.1,14.8,9.4,92,75,55,30.41,30.07,8,2,12,0.00
2013-1-27,35.6,24.2,13.5,21.3,16.0,9.5,88,72,48,30.57,30.41,6,1,11,0.01
2013-1-28,38.5,32.2,19.4,36.7,30.2,16.7,94,92,88,30.52,30.04,6,2,9,0.07
2013-1-29,57.9,44.6,36.2,51.3,41.8,34.9,97,90,77,30.15,30.03,3,0,6,0.00
2013-1-30,61.5,54.8,46.4,56.6,52.3,45.0,96,91,82,30.04,29.40,15,6,25,0.00
2013-1-31,58.7,45.7,31.3,56.5,33.0,13.2,97,63,41,29.90,29.17,20,11,31,0.33
2013-2-1,32.8,28.8,22.2,27.5,16.3,9.5,100,61,44,30.31,29.82,13,6,22,0.01
2013-2-2,30.2,24.2,15.0,26.9,14.6,7.8,93,67,54,30.36,30.04,7,3,11,0.00
2013-2-3,34.9,29.6,24.5,28.6,25.2,23.0,94,84,63,30.04,29.81,8,1,11,0.02
2013-2-4,32.7,29.1,23.8,28.7,18.5,14.1,85,65,54,30.08,29.87,11,4,18,0.00
2013-2-5,43.2,35.7,30.8,33.9,30.1,23.2,92,81,60,29.94,29.86,2,0,8,0.00
2013-2-6,41.4,34.7,26.2,31.9,27.9,23.1,95,77,58,30.35,29.90,10,3,15,0.00
2013-2-7,40.4,32.4,23.4,31.2,23.8,17.8,89,71,53,30.48,30.22,5,2,11,0.00
2013-2-8,45.8,40.6,34.8,44.9,38.7,31.1,100,93,79,30.22,29.57,10,5,19,1.60
2013-2-9,36.4,31.7,27.9,33.3,22.2,15.6,95,68,53,30.35,29.76,13,8,24,0.02
2013-2-10,38.1,29.7,18.5,31.5,18.9,6.1,86,65,27,30.49,30.31,7,2,12,0.00
2013-2-11,49.3,43.4,35.4,48.2,41.6,31.9,97,93,87,30.31,29.94,10,4,16,0.30
2013-2-17,29.3,28.1,25.8,17.7,10.8,6.3,64,48,44,30.08,29.90,12,10,23,0.00
2013-2-18,36.7,29.3,22.0,25.7,14.0,5.5,71,53,41,30.33,30.08,12,6,20,0.00
2013-2-19,47.6,41.9,34.4,45.6,36.5,24.6,96,81,66,30.23,29.72,10,5,14,0.15
2013-2-20,40.2,33.3,27.2,31.5,19.5,12.9,71,57,48,30.08,29.80,13,8,20,0.00
2013-2-21,36.3,30.1,24.3,20.2,16.7,13.3,66,57,48,30.29,30.06,12,6,22,0.00
2013-2-22,39.8,33.0,26.4,34.2,26.1,18.0,94,76,65,30.40,30.22,4,1,9,0.06
2013-2-23,48.4,43.5,35.8,47.6,42.6,34.2,97,97,94,30.23,29.74,5,2,9,0.28
2013-2-24,49.5,41.8,33.8,41.7,35.1,23.1,100,79,52,30.03,29.74,11,5,15,0.01
2013-2-25,46.2,35.9,28.4,32.9,26.7,22.7,91,70,52,30.23,30.03,7,2,11,0.00
2013-2-26,49.1,38.4,26.1,48.3,35.1,24.4,100,88,73,30.24,29.66,7,3,19,0.79
2013-2-27,55.0,49.1,44.2,50.4,45.1,39.3,100,87,60,29.68,29.47,11,3,20,0.02
2013-2-28,46.8,42.1,37.5,41.9,36.9,30.3,95,83,57,29.67,29.58,8,2,12,0.09
2013-3-1,44.9,40.1,34.4,34.6,31.7,28.8,88,72,58,29.81,29.66,9,4,16,0.00
2013-3-2,41.2,36.6,31.5,29.1,26.5,24.9,79,67,55,29.83,29.73,8,4,11,0.00
2013-3-3,38.5,34.5,31.6,25.6,22.4,18.6,71,61,49,29.81,29.72,9,5,16,0.00
2013-3-4,40.8,35.3,31.2,24.7,22.5,19.3,68,59,51,29.97,29.80,11,7,22,0.00
2013-3-5,44.1,35.5,29.4,32.5,26.8,22.3,91,71,57,30.04,29.89,8,3,13,0.00
2013-3-6,41.0,38.8,33.6,39.1,36.6,31.3,94,92,83,29.89,29.54,16,9,30,1.63
2013-3-7,46.7,40.4,34.6,33.7,32.2,29.8,94,73,56,30.07,29.82,10,6,19,0.06
2013-3-8,41.1,36.4,31.4,37.0,32.6,28.3,94,86,68,30.17,30.01,9,5,18,0.12
2013-3-9,59.1,43.9,31.4,33.0,26.7,16.4,86,56,20,30.30,30.16,7,3,13,0.00
2013-3-10,51.8,38.4,26.8,40.8,33.3,24.8,96,83,61,30.36,30.29,4,1,8,0.00
2013-3-11,57.7,46.1,32.8,51.0,43.1,31.5,98,90,75,30.30,30.05,7,3,12,0.00
2013-3-12,55.4,52.7,43.2,54.2,49.8,36.8,97,90,78,30.06,29.71,13,6,20,0.38
2013-3-13,50.8,42.2,35.3,36.7,32.3,24.9,85,69,44,29.96,29.84,12,4,16,0.00
2013-3-14,42.8,37.5,31.4,25.2,20.7,17.5,70,51,37,30.03,29.93,12,7,23,0.00
2013-3-15,50.3,39.6,28.9,37.2,26.0,16.2,85,59,40,30.06,29.77,10,4,15,0.00
2013-3-16,45.3,39.4,33.3,36.9,33.7,30.1,94,81,59,29.90,29.70,7,2,12,0.00
2013-3-17,40.9,37.2,33.9,33.8,28.4,22.3,91,72,52,30.27,29.88,7,2,12,0.00
2013-3-18,46.6,38.7,32.2,45.8,31.6,20.7,97,77,59,30.34,29.84,6,2,11,0.72
2013-3-19,53.6,45.9,41.8,46.3,40.6,24.0,97,84,49,29.86,29.70,8,3,13,0.17
2013-3-20,49.9,41.4,30.8,34.7,25.5,19.7,80,55,31,29.96,29.78,12,5,22,0.00
2013-3-21,42.4,34.1,30.2,34.7,25.4,13.9,94,72,46,29.82,29.67,8,4,13,0.05
2013-3-22,42.7,35.7,29.7,24.7,21.6,14.5,69,57,44,29.95,29.81,11,6,20,0.01
2013-3-23,34.9,32.3,30.8,23.6,23.2,22.7,73,69,63,29.97,29.94,5,2,8,0.00
2013-4-14,52.7,50.9,49.1,42.9,42.0,41.5,77,72,67,30.16,30.12,0,0,4,0.00
2013-4-15,58.9,51.7,46.3,47.6,44.2,37.3,89,76,62,30.34,30.13,4,1,14,0.03
2013-4-16,69.7,58.4,46.5,58.5,52.2,44.3,95,81,66,30.34,30.14,9,4,13,0.00
2013-4-17,74.5,60.6,48.9,61.7,53.2,41.9,94,78,57,30.27,30.11,5,2,8,0.00
2013-4-18,69.2,58.2,47.6,61.9,53.8,43.2,95,85,76,30.29,30.08,7,2,11,0.00
2013-4-19,73.3,64.6,58.7,65.3,61.2,57.3,96,89,75,30.08,29.68,11,6,16,0.34
2013-4-20,64.4,53.0,47.1,63.2,40.0,30.0,96,65,36,30.29,29.70,10,5,16,0.51
2013-4-21,54.2,44.6,34.0,34.8,29.4,22.7,89,57,30,30.59,30.29,6,2,12,0.00
2013-4-22,52.6,43.4,32.7,42.7,37.0,29.9,93,79,63,30.59,30.39,9,4,18,0.00
2013-4-23,51.1,46.7,43.9,44.8,42.3,39.1,90,85,76,30.40,30.11,8,4,15,0.00
2013-4-24,65.1,52.9,38.4,55.6,48.6,36.8,97,86,70,30.13,29.86,7,4,13,0.00
2013-4-25,63.4,55.3,46.3,55.2,39.3,29.4,92,57,30,30.28,29.89,10,4,14,0.01
2013-4-26,65.1,54.4,39.5,45.3,37.6,28.9,95,58,28,30.40,30.28,8,2,13,0.00
2013-4-27,68.8,53.9,37.9,48.3,40.2,35.3,92,64,33,30.42,30.30,6,1,11,0.00
2013-4-28,68.8,54.0,37.6,53.6,40.3,32.0,97,65,29,30.31,30.19,6,1,9,0.00
2013-4-29,57.5,54.8,53.3,56.0,53.1,47.5,99,94,81,30.21,30.11,2,1,7,0.88
2013-4-30,65.6,57.2,49.5,53.1,50.5,44.9,97,79,58,30.28,30.11,6,2,14,0.06
2013-5-1,64.6,52.9,42.6,50.8,44.4,36.7,93,75,38,30.44,30.27,8,3,15,0.00
2013-5-2,67.0,53.8,41.0,49.1,43.9,39.7,97,72,45,30.43,30.31,5,1,11,0.00
2013-5-3,58.7,51.3,42.9,46.6,43.4,40.7,93,76,56,30.41,30.32,9,3,19,0.00
2013-5-4,66.7,52.5,42.5,48.7,43.6,40.2,96,74,46,30.34,30.22,7,2,13,0.00
2013-5-5,60.4,50.3,43.4,47.2,43.0,40.1,93,77,59,30.25,30.19,8,2,13,0.00
2013-5-6,62.7,53.0,44.1,56.2,50.2,42.5,96,90,77,30.20,30.10,8,3,13,0.00
2013-5-7,64.3,57.5,52.6,59.7,55.9,51.4,100,94,82,30.11,30.00,7,3,11,0.09
2013-5-8,71.7,61.4,56.6,62.1,56.9,54.1,98,86,58,30.02,29.94,5,1,8,0.10
2013-5-9,71.0,62.8,56.7,60.0,57.7,55.3,97,84,65,29.98,29.90,7,2,10,0.04
2013-5-10,76.3,62.5,56.6,64.1,58.9,54.9,97,89,62,30.01,29.96,4,0,6,0.00
2013-5-11,66.1,64.7,62.8,63.9,62.6,61.3,95,93,91,29.75,29.71,4,1,8,1.28
2013-5-12,66.1,60.8,51.9,61.2,48.2,32.8,96,67,35,29.97,29.68,8,3,18,0.11
2013-5-13,58.9,51.3,39.2,41.1,34.4,28.8,92,55,36,30.12,29.97,8,3,18,0.00
2013-5-14,59.8,50.0,37.7,47.6,36.0,30.6,88,62,35,30.18,30.07,8,2,12,0.00
2013-5-15,72.8,62.6,53.1,61.2,54.6,46.8,87,76,59,30.10,29.70,6,2,9,0.00
2013-5-16,83.2,71.9,61.9,66.2,61.6,55.4,95,72,42,29.83,29.70,4,1,7,0.00
2013-5-17,77.3,67.2,55.0,61.1,51.0,42.2,90,59,31,30.18,29.83,6,2,9,0.00
2013-5-18,72.0,62.2,55.3,57.9,55.0,48.8,94,78,57,30.27,30.17,4,0,7,0.11
2013-5-19,64.7,61.1,58.0,62.9,59.9,56.9,98,96,94,30.25,30.13,2,0,8,0.26
2013-5-20,80.2,70.3,62.8,70.9,66.5,61.6,97,88,71,30.14,29.98,4,1,6,0.00
2013-5-21,81.0,71.6,65.2,71.1,67.3,63.8,97,87,70,30.00,29.87,5,2,7,0.00
2013-5-22,80.8,72.6,68.5,72.1,68.7,66.5,96,88,73,29.93,29.85,6,2,8,0.00
2013-5-23,77.1,71.0,65.9,70.8,67.5,64.4,95,89,78,29.92,29.75,8,4,12,0.04
2013-5-24,66.6,58.7,47.4,65.6,55.5,40.3,98,89,68,30.02,29.70,10,4,16,0.36
2013-5-25,62.3,54.4,47.5,42.7,39.9,35.2,80,60,38,30.08,29.98,10,6,22,0.00
2013-5-26,69.2,58.7,47.5,46.1,41.2,37.2,87,54,34,30.19,30.06,9,3,15,0.00
2013-5-27,71.3,59.2,42.7,54.8,46.4,39.2,93,66,34,30.26,30.17,6,1,8,0.00
2013-5-28,68.5,61.3,54.3,64.7,58.7,51.5,96,91,84,30.22,30.10,4,0,7,0.24
2013-5-29,86.0,73.8,64.3,71.3,66.2,60.8,93,78,58,30.12,30.05,5,2,8,0.00
2013-5-30,87.2,76.2,66.9,72.2,68.0,63.8,92,77,56,30.17,30.08,4,1,8,0.00
2013-5-31,87.6,76.7,67.9,71.0,68.3,65.8,95,77,54,30.15,30.02,5,2,8,0.00
2013-6-1,86.2,77.1,69.5,73.0,69.5,66.1,93,78,60,30.05,29.93,6,3,12,0.00
2013-6-2,84.9,76.4,70.0,71.3,69.2,67.1,95,79,62,29.94,29.82,6,4,13,0.54
2013-6-3,75.6,71.0,67.5,70.8,68.9,65.3,97,93,82,29.87,29.78,6,1,9,0.43
2013-6-4,74.5,66.6,57.9,65.4,54.2,46.1,94,67,38,30.09,29.86,4,1,10,0.00
2013-6-5,79.6,65.4,51.0,58.8,53.7,48.0,94,70,36,30.18,30.08,3,0,6,0.00
2013-6-6,76.5,65.3,51.9,65.6,59.5,50.4,97,83,61,30.11,29.93,3,0,9,0.02
2013-6-7,72.1,68.5,64.7,71.4,67.3,62.4,98,96,92,29.93,29.49,7,1,10,1.00
2013-6-8,74.7,68.7,62.4,69.6,65.9,61.2,97,91,80,30.06,29.49,8,2,15,0.18
2013-6-9,79.6,70.9,61.5,68.0,64.4,60.2,97,81,60,30.18,30.06,4,1,7,0.00
2013-6-10,78.1,70.7,64.9,73.2,68.9,62.9,97,94,83,30.14,29.81,7,2,13,0.47
2013-6-11,82.0,75.1,69.9,71.6,69.0,65.5,97,83,61,29.81,29.69,6,3,15,0.14
2013-6-12,83.3,75.5,68.9,69.8,66.4,61.4,89,74,56,29.83,29.77,6,2,11,0.00
2013-6-13,85.5,71.4,66.1,74.7,66.7,60.0,96,86,61,29.83,29.40,7,1,11,1.20
2013-6-14,72.6,62.2,55.4,64.3,57.2,52.1,95,85,58,29.92,29.45,7,3,14,0.55
2013-6-15,80.5,66.7,57.0,64.8,59.8,55.9,98,81,50,30.03,29.92,5,1,9,0.00
2013-6-16,77.8,72.2,69.6,70.9,68.3,67.3,93,88,77,29.88,29.85,7,0,9,0.01
2013-6-17,84.3,74.5,66.8,73.7,68.8,64.2,97,83,64,29.93,29.86,6,1,8,0.02
2013-6-18,78.7,69.8,62.2,74.0,67.5,61.0,96,93,84,29.91,29.76,9,1,16,2.53
2013-6-19,77.2,67.1,57.7,63.4,60.3,53.5,97,81,52,30.16,29.83,5,1,9,0.00
2013-6-20,77.8,66.7,53.6,63.1,56.4,48.7,98,73,43,30.28,30.16,4,1,6,0.00
2013-6-21,81.9,68.4,52.9,64.0,57.3,51.5,100,72,40,30.31,30.25,2,0,5,0.00
2013-6-22,82.9,70.0,54.2,69.0,60.2,52.8,98,73,52,30.26,30.15,4,1,6,0.00
2013-6-23,84.2,74.4,64.3,75.5,69.2,61.3,93,84,71,30.20,30.05,6,1,12,0.03
2013-6-24,90.0,80.1,73.8,77.7,73.8,68.7,95,82,53,30.10,29.98,4,1,7,0.00
2013-6-25,89.0,80.8,72.4,76.3,72.9,66.6,94,78,52,30.01,29.85,4,1,8,0.00
2013-6-26,88.9,80.2,72.2,78.2,71.6,66.0,94,76,55,29.89,29.77,9,1,13,0.03
2013-6-27,87.4,77.3,70.7,77.1,72.8,69.3,97,86,68,29.82,29.57,7,2,13,0.39
2013-6-28,87.3,79.3,74.3,75.3,73.4,71.6,95,83,65,29.61,29.48,5,3,8,0.00
2013-10-5,67.3,67.2,67.2,66.0,65.8,65.5,96,95,94,30.05,30.04,0,0,3,0.00
2013-10-6,83.5,72.5,66.0,73.1,67.8,65.1,98,86,62,30.04,29.96,4,0,7,0.00
2013-10-7,78.9,69.5,60.3,71.7,66.4,58.6,96,90,74,30.01,29.81,9,3,13,0.64
2013-10-8,64.3,57.7,52.2,58.4,51.0,48.1,94,79,62,30.26,30.01,5,1,11,0.00
2013-10-9,62.4,57.4,53.5,55.0,52.3,48.0,94,83,73,30.28,30.17,8,4,19,0.08
2013-10-10,63.6,60.7,56.5,62.7,59.6,54.8,97,96,94,30.17,29.92,8,6,19,1.07
2013-10-11,65.6,63.6,62.2,64.7,62.6,61.3,97,97,96,29.97,29.87,8,5,15,1.32
2013-10-12,62.6,62.2,61.9,61.4,61.1,60.7,97,97,94,30.14,29.95,6,5,13,1.09
2013-10-13,65.8,61.0,53.3,61.1,56.7,51.3,97,86,72,30.31,30.14,8,4,23,0.11
2013-10-14,66.9,57.0,50.2,58.7,53.1,48.5,96,88,70,30.31,30.22,4,1,9,0.00
2013-10-15,69.6,57.5,47.9,55.4,51.3,46.7,97,82,53,30.23,30.07,4,1,10,0.00
2013-10-16,70.7,61.9,55.9,63.9,59.4,54.3,98,92,77,30.07,29.93,2,0,6,0.00
2013-10-17,73.9,65.7,61.7,65.5,62.7,60.5,97,90,74,29.92,29.73,6,1,9,0.00
2013-10-18,67.2,60.2,48.4,64.5,50.4,45.9,92,71,53,30.00,29.73,7,2,13,0.00
2013-10-19,48.3,45.9,43.6,45.8,43.7,41.7,94,92,91,30.00,29.99,0,0,0,0.00
2013-10-20,43.9,43.0,42.1,41.0,40.4,39.7,91,90,89,30.09,30.09,0,0,0,0.00
2013-10-21,63.9,50.3,37.8,52.8,43.2,36.4,98,79,43,30.16,29.99,4,1,9,0.00
2013-10-22,66.8,59.1,48.0,56.0,51.4,45.8,95,76,55,29.99,29.77,5,1,10,0.00
2013-10-23,52.9,48.1,43.4,49.6,44.3,38.9,96,87,71,29.82,29.60,3,1,8,0.40
2013-10-24,53.1,45.7,40.6,39.8,35.5,29.1,87,69,42,30.08,29.81,8,2,12,0.00
2013-10-25,52.9,45.2,39.2,37.9,35.5,33.3,83,69,53,30.28,30.08,6,2,13,0.00
2013-10-26,57.1,50.1,34.4,41.1,38.1,31.0,88,64,49,30.27,29.93,8,4,12,0.00
2013-10-27,57.6,50.9,37.4,41.8,38.0,33.6,91,63,42,30.16,29.92,7,2,12,0.00
2013-10-28,62.9,46.9,32.0,48.8,40.4,30.2,96,80,54,30.27,30.14,3,0,7,0.00
2013-10-29,62.2,50.9,43.5,50.9,45.3,40.2,93,82,63,30.35,30.26,5,1,8,0.00
2013-10-30,58.3,49.9,43.3,56.2,48.5,42.0,97,95,88,30.33,30.18,0,0,1,0.04
2013-10-31,69.7,59.3,47.8,62.8,56.4,46.7,98,91,74,30.20,29.85,6,2,9,0.02
2013-11-1,67.9,64.5,61.1,64.0,61.9,59.1,96,91,83,29.84,29.59,9,4,15,0.09
2013-11-2,63.6,62.9,61.2,62.4,61.7,60.1,96,96,96,29.64,29.59,0,0,1,0.00
2013-11-5,46.1,44.1,42.0,43.3,41.7,40.1,93,91,90,30.51,30.47,0,0,0,0.00
2013-11-6,62.6,51.3,35.0,58.1,47.3,33.7,98,87,66,30.48,30.08,4,1,7,0.00
2013-11-7,60.8,56.3,45.5,60.2,54.2,40.0,98,93,81,30.08,29.79,9,2,12,0.18
2013-11-8,50.7,44.7,39.1,40.0,31.3,27.3,81,60,41,30.27,29.99,10,3,19,0.01
2013-11-9,39.2,37.5,36.0,30.5,29.9,29.2,76,74,71,30.30,30.27,1,0,5,0.00
2013-11-11,52.5,49.1,38.6,43.6,37.9,31.8,78,66,51,30.27,30.02,6,3,9,0.00
2013-11-12,50.4,41.2,31.4,43.7,29.7,18.3,86,64,45,30.33,29.96,10,4,20,0.00
2013-11-13,40.2,33.7,27.5,26.3,18.9,15.2,71,55,36,30.42,30.32,8,3,19,0.00
2013-11-14,54.0,43.8,35.2,39.8,32.0,25.0,85,64,40,30.36,30.23,8,3,14,0.00
2013-11-15,53.2,46.3,39.1,41.9,38.4,35.9,90,75,53,30.28,30.19,6,1,10,0.00
2013-11-16,45.2,41.8,39.2,43.0,39.5,36.5,92,91,90,30.27,30.24,1,0,2,0.03
2013-11-20,32.8,32.7,32.5,25.4,25.2,25.1,74,74,74,30.56,30.55,1,0,2,0.00
2013-11-21,56.2,43.6,31.9,44.2,36.6,25.4,90,77,61,30.56,30.39,4,0,7,0.00
2013-11-22,55.8,51.8,45.5,53.8,49.7,43.3,96,93,89,30.39,29.95,4,1,7,0.08
2013-11-23,53.4,52.4,50.9,52.6,50.7,47.5,97,94,88,29.98,29.95,6,4,9,0.01
2013-11-24,26.0,25.5,24.9,12.2,7.7,5.4,56,47,41,30.47,30.44,4,2,8,0.00
2013-11-25,36.4,29.7,23.1,27.5,17.1,12.2,70,59,47,30.56,30.37,8,3,14,0.00
2013-11-26,58.2,42.8,36.4,57.4,36.1,25.0,97,78,58,30.38,29.62,7,2,11,0.42
2013-11-27,60.7,45.5,33.5,59.8,42.9,22.1,98,91,60,29.89,29.38,11,7,18,0.42
2013-11-28,37.9,32.5,26.9,26.0,21.5,19.3,88,64,49,30.50,29.90,11,4,16,0.10
2013-11-29,41.6,32.4,23.7,26.3,23.4,20.3,92,71,46,30.71,30.48,4,1,10,0.07
2013-11-30,28.1,26.8,26.1,20.4,20.0,19.6,77,75,72,30.71,30.70,1,0,2,0.00
2013-12-1,37.4,36.2,34.0,35.0,33.8,31.6,91,91,90,30.04,30.02,0,0,0,0.07
2013-12-2,51.5,37.2,28.1,40.7,33.2,26.6,97,86,61,30.02,29.86,1,0,4,0.01
2013-12-3,52.1,41.0,31.5,46.4,37.8,29.2,96,89,70,30.01,29.86,5,1,8,0.00
2013-12-4,54.8,46.0,33.4,50.4,43.0,31.9,97,90,76,30.10,30.00,2,0,5,0.02
2013-12-5,58.4,54.7,49.7,57.3,53.3,48.6,97,95,92,30.10,29.95,5,1,7,0.01
2013-12-6,59.2,51.1,40.1,58.6,50.1,39.1,98,96,95,30.13,29.91,7,2,13,0.47
2013-12-7,40.3,38.8,28.9,39.5,37.8,26.5,97,96,90,30.51,30.05,4,1,7,0.37
2013-12-8,34.3,30.5,27.2,33.5,27.5,22.2,97,89,73,30.58,30.26,5,2,10,0.00
2013-12-9,38.9,37.4,34.1,38.4,36.6,33.3,98,97,95,30.26,30.01,8,3,12,1.52
2013-12-10,35.9,33.6,31.9,34.9,31.8,24.3,96,93,71,30.20,29.89,6,2,9,0.15
2013-12-11,38.1,31.1,23.3,27.4,23.5,19.9,92,74,54,30.40,30.20,7,2,13,0.01
2013-12-12,29.7,26.5,21.7,25.1,17.7,11.8,95,70,51,30.38,30.23,7,3,14,0.00
2013-12-13,39.8,33.8,28.0,26.3,21.9,15.4,92,63,44,30.34,30.20,9,4,18,0.01
2013-12-14,55.1,40.8,29.2,54.5,39.3,26.1,98,94,89,30.34,29.61,5,1,8,0.92
2013-12-15,55.3,40.7,34.1,54.7,35.5,24.3,98,83,66,29.92,29.54,10,6,15,0.08
2013-12-16,37.4,32.1,26.5,28.4,20.3,14.2,75,62,51,30.23,29.92,8,4,13,0.00
2013-12-17,46.7,35.7,29.4,42.9,29.9,15.7,94,80,56,30.21,29.91,6,1,9,0.03
2013-12-18,39.0,32.4,26.9,30.1,25.2,21.1,94,76,49,30.23,29.91,9,3,14,0.01
2013-12-19,50.4,39.4,25.2,37.1,32.4,22.9,94,77,55,30.23,30.08,8,2,12,0.00
2013-12-20,53.8,47.8,41.5,50.1,41.2,35.1,92,78,66,30.13,30.02,8,2,10,0.00
2013-12-21,52.2,51.4,50.2,48.6,47.8,47.1,90,87,85,30.04,30.02,3,1,5,0.00
2013-12-23,44.3,43.2,42.1,39.5,38.7,37.6,85,84,83,30.15,30.12,6,5,10,0.36
2013-12-24,42.1,37.0,27.4,37.9,26.4,13.7,86,66,52,30.39,30.11,10,5,19,0.02
2013-12-25,32.5,26.1,20.8,19.9,15.7,10.8,89,65,43,30.54,30.38,7,2,15,0.00
2013-12-26,41.7,29.6,19.5,29.9,23.5,17.3,93,79,50,30.41,30.21,7,1,11,0.00
2013-12-27,43.5,33.4,22.9,33.4,27.1,20.9,100,79,50,30.42,30.30,6,1,9,0.00
2013-12-28,51.3,41.7,33.7,37.2,34.7,30.5,89,77,57,30.33,30.12,5,1,6,0.00
2013-12-29,56.6,45.9,41.9,55.8,42.5,35.3,98,88,67,30.12,29.45,13,4,18,1.11
2013-12-30,49.1,40.7,31.1,40.8,34.3,24.7,95,79,62,30.17,29.76,7,3,14,0.00
2013-12-31,41.7,33.5,28.1,31.5,23.3,18.9,84,66,53,30.33,30.09,8,2,12,0.00
2014-1-1,43.5,32.3,23.7,33.3,25.4,18.6,94,77,53,30.43,30.17,6,1,10,0.00
2014-1-2,37.7,33.3,27.2,35.6,31.7,25.9,96,94,89,30.17,29.54,7,2,10,0.00